IONOSFERA-M 1

Last updated on Sun Apr 12 2026 00:02:36 GMT+0000 (Coordinated Universal Time)

1 61735U 24199A 26101.52451813 .00000020 00000+0 28503-4 0 9999 2 61735 98.7269 335.3689 0001207 32.4274 327.6978 14.22741996118225
UTC large
Height (km)
Speed (km/s)
/
Latitude / Longitude
Inclination (degrees)
Orbital Period (minutes)
Azimuth
Elevation
Range (km)
Doppler Factor

Next 0 passes for location: London (51.5072 / 0.1276)

Sorry there are no passes over London.
IONOSFERA-M 1